This is the latest recevied weather packets stored in our database for station/object F6BIJ-13. If no packets are shown the sender has not sent any weather packets the latest 10 day(s).
| Time | Temp. | Humidity | Pressure | Rain* | Wind** | Luminosity | Snow |
|---|---|---|---|---|---|---|---|
| 1778179717 | 15° C | 77% | 1013.4 hPa | 0 mm | - | - | - |
| 1778179357 | 14.44° C | 77% | 1013.3 hPa | 0 mm | - | - | - |
| 1778178997 | 14.44° C | 76% | 1013.2 hPa | 0 mm | - | - | - |
| 1778178637 | 14.44° C | 78% | 1013.2 hPa | 0 mm | - | - | - |
| 1778178277 | 14.44° C | 79% | 1013.1 hPa | 0 mm | - | - | - |
| 1778177917 | 15° C | 79% | 1013.1 hPa | 0 mm | - | - | - |
| 1778177557 | 15.56° C | 79% | 1013.1 hPa | 0 mm | - | - | - |
| 1778177197 | 15.56° C | 78% | 1013 hPa | 0 mm | - | - | - |
| 1778176837 | 16.11° C | 78% | 1013.1 hPa | 0 mm | - | - | - |
| 1778176477 | 16.11° C | 77% | 1013 hPa | 0 mm | - | - | - |
| 1778176117 | 16.67° C | 74% | 1013 hPa | 0 mm | - | - | - |
| 1778175757 | 16.67° C | 73% | 1012.9 hPa | 0 mm | - | - | - |
| 1778175397 | 17.22° C | 71% | 1012.9 hPa | 0 mm | - | - | - |
| 1778175037 | 17.22° C | 66% | 1012.9 hPa | 0 mm | - | - | - |
| 1778174677 | 17.22° C | 62% | 1012.9 hPa | 0 mm | - | - | - |
| 1778174317 | 17.78° C | 61% | 1012.9 hPa | 0 mm | - | - | - |
| 1778173957 | 18.33° C | 61% | 1012.9 hPa | 0 mm | - | - | - |
| 1778173597 | 18.33° C | 60% | 1012.8 hPa | 0 mm | - | - | - |
| 1778173237 | 18.33° C | 59% | 1012.9 hPa | 0 mm | - | - | - |
| 1778172877 | 18.89° C | 57% | 1012.8 hPa | 0 mm | - | - | - |
| 1778172517 | 18.33° C | 58% | 1012.9 hPa | 0 mm | - | - | - |
| 1778172157 | 18.89° C | 58% | 1012.8 hPa | 0 mm | - | - | - |
| 1778171797 | 17.78° C | 57% | 1012.9 hPa | 0 mm | - | - | - |
| 1778171438 | 18.89° C | 60% | 1012.9 hPa | 0 mm | - | - | - |
| 1778171078 | 18.33° C | 59% | 1013 hPa | 0 mm | - | - | - |
* Rain latest 24 hours (hover to see other rain measurements)
** Current wind speed in m/s (hover to see current wind gust speed)